Location: Saint-Restitut
(44.3351°N, 4.7915°E)
Time: 20:44:09
(UTC+00:00)

CZ-4C R/B - Pass Details

Date: 03 February 2023
Orbit: 456 x 612 km, 98.1° (Epoch: 23 March)

Event Time Altitude Azimuth Distance (km) Brightness Sun altitude
Rises 18:09:08 0° 10° (N) 2,704 6.7 -13.9°
Reaches altitude 10° 18:11:19 10° 8° (N) 1,779 5.7 -14.3°
Maximum altitude 18:15:07 66° 286° (WNW) 558 3.5 -15.0°
Drops below altitude 10° 18:18:41 10° 204° (SSW) 1,677 6.2 -15.6°
Sets 18:20:42 0° 201° (SSW) 2,531 7.1 -16.0°
